Location: Melbourne
(37.8666°S, 145.1333°E)
Time: 05:20:48

Hubble Space Telescope - Pass Details

Date: 21 February 2018
Orbit: 537 x 541 km, 28.5° (Epoch: 17 March)

Event Time Altitude Azimuth Distance (km) Brightness Sun altitude
Rises 20:47:54 0° 288° (WNW) 2,692 5.3 -7.9°
Reaches altitude 10° 20:50:36 10° 304° (NW) 1,799 4.0 -8.4°
Maximum altitude 20:53:42 20° 353° (N) 1,272 2.5 -8.9°
Drops below altitude 10° 20:56:48 10° 41° (NE) 1,794 2.9 -9.5°
Enters shadow 20:56:51 10° 41° (NE) 1,811 2.9 -9.5°
